Weather History for Valentine, NE

Change the Weather History Date:

Sunday, August 10, 2014

  Actual Average Record
Temperature  
Mean Temperature 73 °F 74 °F  
Max Temperature 82 °F 88 °F 104 °F (1936)
Min Temperature 63 °F 60 °F 42 °F (1985)
Degree Days  
Heating Degree Days 0 0  
Month to date heating degree days 0 0  
Since 1 June heating degree days 73 69  
Since 1 July heating degree days 19 8  
Cooling Degree Days 8 9  
Month to date cooling degree days 87 98  
Year to date cooling degree days 489 573  
Since 1 June cooling degree days 428 539  
Growing Degree Days 22 (Base 50)    
Moisture  
Dew Point 62 °F    
Average Humidity 76    
Maximum Humidity 100    
Minimum Humidity 51    
Precipitation  
Precipitation T in 0.08 in 2.10 in (1892)
Month to date precipitation 1.48 0.89  
Year to date precipitation 17.90 14.82  
Snow  
Snow 0.00 in 0.00 in 0.00 in ()
Month to date snowfall 0.0 0.0  
Since 1 June snowfall 0.0 0.0  
Since 1 July snowfall 0.0 0.0  
Snow Depth 0.00 in    
Sea Level Pressure  
Sea Level Pressure 30.11 in    
Wind  
Wind Speed 9 mph (North)    
Max Wind Speed 21 mph    
Max Gust Speed 26 mph    
Visibility 9 miles    
Events      
T = Trace of Precipitation, MM = Missing Value Source: NWS Daily Summary

Daily Weather History Graph

Daily Weather History Graph

Search for Another Location

Airport:

Trip Planner

Search our weather history database for the weather conditions in past years. The results will help you decide how hot, cold, wet, or windy it might be!

Date:

Astronomy

Aug. 10, 2014 Rise Set
Actual Time 6:43 AM CDT 8:51 PM CDT
Civil Twilight 6:11 AM CDT 9:22 PM CDT
Nautical Twilight 5:33 AM CDT 10:00 PM CDT
Astronomical Twilight 4:51 AM CDT 10:42 PM CDT
Moon 8:37 PM CDT (8/10) 6:38 AM CDT (8/10)
Length of Visible Light 15h 10m
Length of Day
14h 08m
Full, 100% of the Moon is Illuminated
Aug 10
Full
Aug 10
Full
Aug 17
Last Quarter
Aug 25
New
Sep 2
First Quarter

Hourly Weather History & Observations

Time (CDT) Temp. Heat Index Dew Point Humidity Pressure Visibility Wind Dir Wind Speed Gust Speed Precip Events Conditions
12:52 AM 66.0 °F - 64.9 °F 96% 30.02 in 10.0 mi East 5.8 mph - N/A   Clear
1:09 AM 66.0 °F - 66.0 °F 100% 30.07 in 3.0 mi ENE 4.6 mph - N/A   Partly Cloudy
1:52 AM 64.9 °F - 64.0 °F 97% 30.04 in 7.0 mi Calm Calm - N/A   Clear
2:25 AM 66.0 °F - 64.9 °F 96% 30.11 in 8.0 mi Calm Calm - N/A   Mostly Cloudy
2:52 AM 66.0 °F - 64.9 °F 96% 30.04 in 10.0 mi Calm Calm - N/A   Overcast
3:24 AM 64.9 °F - 64.0 °F 97% 30.09 in 10.0 mi Calm Calm - N/A   Scattered Clouds
3:52 AM 64.9 °F - 64.0 °F 97% 30.04 in 10.0 mi Calm Calm - N/A   Clear
4:52 AM 64.0 °F - 63.0 °F 96% 30.06 in 7.0 mi West 3.5 mph - N/A   Scattered Clouds
5:52 AM 63.0 °F - 63.0 °F 100% 30.07 in 7.0 mi West 5.8 mph - N/A   Clear
6:32 AM 63.0 °F - 63.0 °F 100% 30.12 in 6.0 mi Calm Calm - N/A   Partly Cloudy
6:52 AM 63.0 °F - 63.0 °F 100% 30.08 in 5.0 mi West 3.5 mph - N/A   Partly Cloudy
7:52 AM 66.9 °F - 64.0 °F 90% 30.10 in 10.0 mi NNW 9.2 mph - N/A   Clear
8:52 AM 69.8 °F - 64.4 °F 83% 30.16 in 10.0 mi NNW 5.8 mph - N/A   Clear
9:52 AM 71.1 °F - 64.0 °F 78% 30.12 in 10.0 mi NNW 13.8 mph - N/A   Clear
10:52 AM 73.0 °F - 64.0 °F 73% 30.13 in 10.0 mi North 11.5 mph - N/A   Clear
11:52 AM 79.0 °F - 64.0 °F 60% 30.13 in 10.0 mi North 12.7 mph - N/A   Partly Cloudy
12:52 PM 80.1 °F 81.5 °F 63.0 °F 56% 30.13 in 10.0 mi NNW 15.0 mph 24.2 mph N/A   Partly Cloudy
1:52 PM 78.1 °F - 64.9 °F 64% 30.13 in 10.0 mi NNW 15.0 mph - 0.00 in   Mostly Cloudy
2:52 PM 80.6 °F 81.8 °F 62.6 °F 54% 30.18 in 10.0 mi North 13.8 mph - N/A   Scattered Clouds
3:52 PM 82.0 °F 83.0 °F 62.1 °F 51% 30.12 in 10.0 mi North 16.1 mph 24.2 mph N/A   Scattered Clouds
4:52 PM 81.0 °F 81.7 °F 61.0 °F 50% 30.13 in 10.0 mi North 15.0 mph - N/A   Clear
5:52 PM 80.1 °F 81.5 °F 63.0 °F 56% 30.13 in 10.0 mi NNE 15.0 mph - N/A   Scattered Clouds
6:52 PM 78.8 °F - 60.8 °F 54% 30.18 in 10.0 mi North 12.7 mph 20.7 mph N/A   Partly Cloudy
7:52 PM 77.0 °F - 59.0 °F 54% 30.14 in 10.0 mi NNE 11.5 mph - N/A   Partly Cloudy
8:52 PM 73.0 °F - 55.9 °F 55% 30.15 in 10.0 mi North 6.9 mph - N/A   Clear
9:52 PM 69.1 °F - 55.9 °F 63% 30.17 in 10.0 mi North 5.8 mph - N/A   Clear
10:52 PM 66.2 °F - 53.6 °F 64% 30.22 in 10.0 mi North 5.8 mph - N/A   Clear
11:52 PM 64.0 °F - 54.0 °F 70% 30.18 in 10.0 mi NE 4.6 mph - N/A   Clear